Location: Christianberg
(48.9086°N, 14.0209°E)
Time: 21:29:57
(UTC+00:00)

IRS-1C - Pass Details

Date: 20 June 2021
Orbit: 815 x 817 km, 98.9° (Epoch: 04 August)

Event Time Altitude Azimuth Distance (km) Brightness Sun altitude
Rises 02:02:08 0° 16° (NNE) 3,358 8.7 -7.6°
Reaches altitude 10° 02:04:31 10° 19° (NNE) 2,421 7.9 -7.4°
Maximum altitude 02:09:51 69° 103° (ESE) 873 4.4 -6.8°
Drops below altitude 10° 02:15:09 10° 187° (S) 2,402 6.1 -6.2°
Enters shadow 02:17:09 - 189° (S) 3,192 6.7 -6.0°
